Weather Roundup
Issued by NWS Chicago, IL

Home | Current Version | Previous Version | Text Only | Print | Product List | Glossary Off
Versions: 1 2 3 4 5 6 7 8 9 10 11 12 13 14 15 16 17 18 19 20 21 22 23 24 25 26 27 28 29 30 31 32 33 34 35 36 37 38 39 40 41 42 43 44 45 46 47 48 49 50

000
NZUS59 KLOT 280404
HRRLOT

CHICAGO AREA WEATHER ROUNDUP
NATIONAL WEATHER SERVICE CHICAGO/ROMEOVILLE IL
1100 PM CDT WED JUL 27 2016

NOTE: "FAIR" INDICATES FEW OR NO CLOUDS BELOW 12,000 FEET WITH NO
SIGNIFICANT WEATHER AND/OR OBSTRUCTIONS TO VISIBILITY.

* THESE STATIONS ARE NOT UNDER NWS QUALITY CONTROL. THEY ALSO MAY NOT
  REPORT WEATHER SUCH AS PRECIPITATION OR FOG.

ILZ005-006-012>014-019>023-280500-
NORTHEAST ILLINOIS

CITY           SKY/WX    TMP DP  RH WIND       PRES   REMARKS
OHARE          MOCLDY    77  65  66 VRB5      29.95S
MIDWAY         PTCLDY    81  63  54 SE5       29.95R HX  82
AURORA         CLEAR     74  68  81 CALM      29.95S
LANSING*       PTCLDY    73  66  80 CALM      29.96S
WAUKEGAN       CLOUDY    75  73  93 E3        29.95S
DUPAGE AIRPORT PTCLDY    75  66  73 CALM      29.95R
WHEELING       MOCLDY    73  67  81 VRB3      29.96F
KANKAKEE*      CLEAR     73  69  87 CALM      29.97R
MORRIS*        PTCLDY    71  69  93 CALM      29.94S
NORTHERLY ISL    N/A     74  68  81 E9          N/A
$$

WIZ051-052-058>065-066-070>072-280500-
SOUTHEAST WISCONSIN

CITY           SKY/WX    TMP DP  RH WIND       PRES   REMARKS
MILWAUKEE      MOCLDY    74  69  85 SE5       29.95F
KENOSHA*       CLOUDY    75  71  87 VRB3      29.96S
RACINE*        MOCLDY    72  68  87 CALM      29.97F
BURLINGTON     MOCLDY    71  68  92 CALM      29.95F
WAUKESHA       CLEAR     70  64  83 SE3       29.97F
$$

INZ001>003-010>013-019-020-280500-
NORTHWEST INDIANA

CITY           SKY/WX    TMP DP  RH WIND       PRES   REMARKS
GARY*          CLOUDY    77  71  80 NE3       29.96S
MICHIGAN CITY* NOT AVBL
RENSSELAER*    NOT AVBL
VALPARAISO     CLEAR     72  67  84 CALM      29.97S
$$

LMZ740>746-280500-
SOUTHERN LAKE MICHIGAN

STATION/POSITION TIME  SKY/WX   TEMP WIND        PRES    VSBY
                                AIR  DIR/SP/G
                 (UTC)          (F)  (DEG/KT/KT) (MB)    (MI)
HARRISON CRIB    0300            78  150/  7/ 10   N/A
BURNHAM HARBOR   0400            74  120/  9/ 11   N/A
CALUMET HARBOR   0300                 40/  1/  2 1013.6
BURNS HARBOR     0300            79  200/  2/  7 1014.9R
MICHIGAN CITY    0300            79  130/  5/  5   N/A
$$

ABBREVIATIONS USED IN REMARKS
   TC - TEMPERATURE IN CELSIUS
  WCI - WIND CHILL INDEX
   HX - HEAT INDEX
  VSB - VISIBILITY
$$




USA.gov is the U.S. government's official web portal to all federal, state and local government web resources and services.